RH
29 26 24 21 20 18 16 18 16 9 11 20 25 25 24 21 15 10 8 8 9 9 10 9 12 11 10 8 8 7 8 7 6 6 7 8 8 10 10 10 10 10 10 8 6
32 30 27 24 23 23 22 16 10 12 20 26 27 23 14 12 10 9 7 7 6 8 8 8 10 8 6 6 7 6 6 5 5 5 4 5 5 5 6 8 11 12 10 10 12
21 26 26 25 22 17 12 10 15 23 28 26 18 14 11 10 8 7 6 6 7 8 9 8 7 5 4 4 6 7 6 6 5 5 4 4 4 4 3 4 5 7 8 8 10
21 16 13 14 16 20 25 28 26 20 14 12 11 12 11 9 6 9 8 9 9 7 7 5 5 4 5 5 4 4 5 5 6 5 4 3 4 4 3 4 4 3 4 5 6
38 34 33 33 32 28 22 20 19 17 14 10 8 7 6 6 5 5 5 6 6 5 5 5 5 5 5 5 5 5 5 5 5 5 5 5 5 4 4 4 5 4 4 4 4
44 40 37 31 28 27 26 26 20 15 11 10 9 8 6 6 6 6 6 6 6 6 6 6 6 6 6 6 6 6 7 7 7 7 8 8 7 7 8 8 7 6 5 5 4
46 39 34 34 36 35 33 30 25 20 17 17 17 18 13 11 11 11 11 13 12 11 11 10 10 10 14 15 16 16 16 15 14 14 13 13 12 12 12 12 11 10 10 9 8
46 41 42 43 44 43 42 38 34 32 29 28 25 27 29 28 30 28 28 28 26 25 25 25 25 24 24 24 23 22 22 22 24 24 23 22 22 19 20 19 18 17 15 14 13
52 49 49 49 48 48 48 48 47 44 41 36 34 33 35 38 36 34 33 32 32 30 28 26 26 29 32 32 31 30 30 30 30 31 29 28 26 24 23 22 21 20 19 18 16
54 50 49 49 48 48 51 53 54 54 50 46 44 41 40 44 44 41 39 37 36 35 34 35 38 39 40 39 38 37 36 38 37 31 34 32 31 27 28 27 26 25 24 23 22
53 51 51 52 54 54 55 56 56 56 58 51 52 48 47 50 48 45 44 44 47 47 47 48 48 48 46 45 45 44 42 41 41 37 38 37 33 32 27 29 28 26 25 24 23
58 54 53 56 59 60 60 61 62 59 59 59 59 57 54 52 49 50 51 54 56 56 56 55 53 52 51 50 48 47 46 46 44 41 40 38 34 35 32 28 29 26 26 25 23
81 80 71 62 62 61 62 68 71 69 63 69 72 70 67 66 62 60 64 65 64 61 60 58 55 56 55 54 52 51 49 50 48 45 42 38 33 32 30 29 28 26 26 25 23
65 85 91 94 95 89 83 80 75 74 76 77 80 82 76 77 77 76 76 78 77 73 72 66 64 62 60 59 60 56 54 52 51 49 46 41 34 34 31 28 26 26 25 23 21
87 90 79 85 92 88 93 97 97 98 92 94 88 94 95 95 96 95 96 95 91 91 92 82 78 73 67 62 57 55 52 50 50 49 44 41 40 30 34 29 28 26 24 21 19
78 84 93 95 96 94 92 95 98 98 94 95 98 97 98 98 98 96 96 98 96 97 97 93 88 79 69 62 58 54 51 51 50 47 39 38 40 27 29 27 25 24 21 19 16
62 75 68 74 84 90 95 97 99 97 96 93 99 96 95 100 98 96 95 97 97 93 87 81 76 70 64 58 56 52 49 53 47 41 42 38 36 29 28 28 25 23 20 15 11
43 56 59 66 85 91 87 94 89 100 98 97 97 100 99 100 98 98 94 94 100 97 96 87 70 62 56 53 50 46 50 58 59 51 50 46 36 33 31 28 23 18 15 10 6
25 29 45 39 55 76 84 84 96 100 98 100 100 98 99 100 98 100 99 95 88 85 84 77 66 58 53 52 50 51 53 56 58 52 50 39 38 36 27 23 19 11 8 6 4
24 23 20 20 32 53 54 93 98 100 99 100 99 97 94 97 100 100 94 85 86 82 79 72 68 55 51 52 54 58 58 59 59 56 52 42 38 28 22 16 10 9 8 6 5
33 29 19 24 32 48 62 68 90 98 98 98 99 98 99 97 99 94 86 80 76 77 66 60 54 56 48 55 60 62 62 60 59 52 47 40 29 22 17 19 16 9 7 7 7
32 41 27 34 50 90 87 100 98 94 97 96 98 99 97 92 90 86 85 83 80 70 68 64 69 58 63 61 57 57 55 55 54 48 40 28 20 17 12 11 10 11 14 17 18
46 48 44 31 47 77 90 99 99 100 100 96 98 82 90 100 100 90 83 76 70 76 71 75 68 67 60 59 62 57 58 59 44 30 25 14 14 6 6 8 13 29 36 49 53
59 50 50 44 62 96 99 99 100 100 100 99 98 100 100 99 99 98 88 73 72 74 75 79 73 69 60 68 74 66 59 43 27 18 10 8 6 6 8 14 39 49 71 86 81
58 48 47 50 51 100 100 93 100 100 99 99 91 99 98 97 98 93 91 88 76 84 92 90 77 73 61 64 63 57 47 28 12 6 6 5 8 11 17 21 53 87 100 94 93
93 54 38 45 100 100 100 98 98 100 99 100 100 98 98 97 90 91 85 89 86 93 93 93 74 74 53 62 50 43 29 8 6 7 10 12 15 31 41 36 50 99 100 98 96
69 37 73 55 100 71 98 99 98 100 99 100 100 100 93 91 84 87 90 89 96 94 92 82 76 65 52 36 23 22 10 8 8 10 14 18 30 33 33 40 45 64 79 76 100
Wind_Speed
12 13 14 15 16 16 15 14 14 14 14 14 16 16 17 19 18 18 17 16 16 15 14 13 12 11 11 11 11 11 10 11 11 12 12 12 13 13 14 12 12 14 15 17 17
13 14 14 14 14 14 14 15 16 16 17 17 18 19 20 20 18 18 17 14 16 16 14 14 13 13 13 13 12 14 14 14 14 14 14 15 16 16 17 17 16 16 17 19 20
10 12 12 13 13 14 15 16 17 18 19 20 21 21 21 20 18 18 15 15 16 16 15 15 14 14 15 15 15 16 16 17 16 17 18 18 18 18 19 19 21 22 22 22 23
11 11 11 12 13 14 16 17 17 18 18 19 19 20 21 20 19 18 16 15 15 15 15 15 15 15 16 16 18 17 17 19 19 19 20 21 22 22 23 22 24 25 27 28 28
12 13 13 14 14 14 14 14 14 14 16 16 16 16 17 19 19 15 14 13 13 14 15 15 16 17 17 17 19 19 20 21 22 22 23 26 26 27 27 28 29 30 31 32 33
14 14 13 13 12 12 12 12 13 13 13 13 14 14 14 13 11 12 13 13 13 14 14 15 16 17 17 19 19 20 22 23 24 25 28 30 30 31 29 32 34 36 37 38 39
16 15 14 14 13 12 11 12 12 13 12 13 13 10 9 8 9 10 12 12 14 14 16 16 17 18 19 21 22 23 26 27 27 29 30 33 33 35 34 37 38 40 41 43 44
17 16 16 15 15 14 14 13 14 14 14 14 14 13 14 13 14 14 16 17 18 19 20 21 23 24 26 27 28 29 31 31 29 32 33 35 37 39 38 41 42 44 45 46 48
18 18 19 19 19 18 17 17 16 17 19 19 19 19 20 20 22 22 23 25 25 27 28 29 29 30 31 33 34 34 35 36 38 36 37 39 42 42 43 44 45 47 48 49 51
21 22 22 23 22 22 22 23 22 23 24 24 24 25 26 25 26 27 28 29 30 31 32 32 32 34 36 37 39 40 38 40 40 43 39 43 44 47 47 48 49 50 51 52 54
24 25 25 26 27 27 27 28 28 28 28 29 29 30 30 31 32 32 32 33 33 34 35 36 36 38 40 40 40 42 43 44 45 48 46 47 49 51 53 53 53 56 57 58 59
27 29 30 29 30 30 31 32 33 33 32 32 33 33 34 34 36 36 36 36 36 38 38 40 41 42 42 42 43 43 46 48 49 51 52 54 54 54 58 58 59 61 62 64 65
30 30 32 34 35 36 36 36 37 38 38 35 35 36 37 38 39 39 39 39 40 39 39 42 43 42 43 44 45 47 49 51 54 57 58 59 57 60 62 61 63 66 68 69 70
33 35 34 35 36 38 40 41 43 44 44 41 39 40 41 41 42 41 41 40 39 41 43 44 43 44 45 47 49 51 53 56 57 59 61 63 66 62 67 68 70 71 72 74 76
29 34 37 38 40 42 41 41 42 40 43 44 46 45 44 45 45 43 40 41 44 43 43 45 46 48 49 51 53 54 56 59 60 62 64 66 69 63 72 73 74 76 78 80 82
31 32 34 37 40 42 44 42 42 39 42 41 41 42 41 41 43 45 44 43 44 45 45 46 48 50 52 54 56 58 61 62 63 65 68 68 72 66 76 77 78 81 84 85 87
31 32 33 36 38 39 39 40 42 43 43 43 43 43 41 40 40 40 41 43 44 46 48 49 50 53 55 58 60 61 63 66 69 71 73 73 76 76 77 82 86 88 89 91 93
34 34 37 37 37 39 41 44 46 45 43 43 42 40 40 39 40 41 43 45 45 48 51 53 57 57 58 60 63 65 65 67 72 74 75 77 81 84 86 87 91 94 95 95 96
38 38 39 40 40 40 42 41 44 44 43 42 42 42 41 42 44 46 46 47 47 50 53 57 60 62 64 67 69 69 70 73 78 79 83 82 86 90 94 95 95 94 92 93 97
44 42 41 43 39 39 43 43 41 41 42 41 40 41 42 41 44 45 47 50 53 56 58 62 66 68 70 72 72 72 75 78 81 84 89 89 91 96 98 99 95 93 92 93 92
47 46 44 43 42 42 36 38 43 41 41 40 39 40 41 43 44 47 48 52 56 61 64 67 70 72 74 73 75 77 80 83 85 87 90 94 92 97 93 87 85 86 85 84 82
49 51 47 45 45 40 42 43 45 49 49 44 41 42 44 46 49 54 57 61 63 66 69 71 73 73 74 78 82 84 85 88 92 93 95 98 99 90 86 81 78 74 70 68 67
55 52 50 49 48 44 44 49 48 47 48 48 47 47 48 50 53 55 57 61 65 68 71 73 76 77 79 84 86 88 88 90 92 94 99 91 100 85 81 76 70 66 61 56 55
56 57 55 50 49 47 47 48 49 48 49 49 49 51 55 56 57 60 62 66 68 71 72 77 79 80 81 82 82 85 87 90 91 94 88 96 88 78 70 65 61 58 55 52 52
58 58 55 53 50 49 51 55 55 57 53 53 54 56 57 59 62 65 67 68 69 72 77 80 83 87 86 88 90 93 93 93 91 87 82 85 72 66 63 60 57 55 57 60 55
56 58 53 50 51 58 62 57 57 58 57 56 54 57 60 63 70 69 68 71 75 77 80 85 88 88 86 91 92 94 97 90 84 78 75 70 68 63 61 58 55 55 58 59 54
59 56 53 51 52 59 60 56 57 57 59 57 59 62 63 65 67 68 72 76 77 80 84 87 88 90 92 88 92 100 84 84 78 71 66 64 61 59 59 58 55 53 50 46 43
Wind_Direction
224 226 227 228 230 233 236 236 238 235 236 237 238 242 247 251 257 262 261 256 254 254 252 243 245 246 252 252 251 251 252 254 256 261 270 275 279 282 280 269 262 265 268 271 275
228 230 232 233 233 234 235 236 237 237 239 244 250 255 256 259 261 261 257 255 256 257 257 253 253 256 257 260 259 258 256 258 262 266 269 275 282 285 284 284 279 267 266 263 263
227 229 233 234 236 237 238 240 243 247 251 254 255 259 259 261 258 259 260 259 259 257 254 257 260 263 267 265 262 263 266 263 265 269 275 278 281 282 288 289 286 285 280 275 270
243 242 243 243 243 246 248 250 253 254 255 257 257 254 256 256 259 262 258 256 257 257 256 261 264 267 269 269 267 269 272 274 276 274 275 279 279 283 284 284 285 286 288 286 282
247 246 243 245 247 248 247 249 251 256 260 259 259 258 256 257 262 255 257 257 259 259 263 265 269 268 267 266 267 271 272 276 276 278 281 282 282 283 285 287 285 282 279 279 281
250 248 243 239 236 236 240 250 255 256 258 257 261 263 262 258 254 256 262 265 265 264 267 268 266 269 269 270 272 274 276 278 280 280 279 280 281 280 283 280 280 280 280 279 277
242 242 238 229 230 234 242 251 258 260 259 262 263 267 272 273 267 268 270 275 273 272 273 273 271 271 272 274 276 277 278 277 276 276 276 278 279 278 280 281 279 279 279 279 278
241 238 232 230 231 234 236 243 251 258 263 266 272 276 276 277 277 279 279 282 282 279 278 278 277 277 277 275 276 275 274 274 273 274 276 276 279 279 279 279 280 280 279 277 276
245 241 237 236 236 239 243 249 253 259 263 266 270 272 277 282 283 284 283 283 281 279 278 277 276 275 275 275 274 273 273 270 272 274 275 275 277 277 277 278 278 277 278 278 277
253 248 246 246 247 249 251 252 254 258 263 270 273 275 279 280 281 284 283 283 280 279 276 276 274 275 277 277 277 276 271 272 274 276 272 275 276 278 279 279 279 279 279 279 278
257 258 257 257 258 259 260 261 261 262 267 272 276 278 279 278 278 278 279 280 280 279 279 277 275 276 277 276 275 275 276 278 277 279 277 279 279 280 282 279 279 280 280 279 279
260 260 261 263 266 266 266 267 268 269 270 273 275 277 277 278 277 276 275 276 278 279 277 274 275 277 276 276 277 277 278 278 280 280 282 282 282 283 281 283 282 282 281 280 280
264 265 266 266 266 267 268 268 269 270 271 271 273 274 275 275 275 275 275 276 276 274 272 275 278 277 276 278 279 280 281 282 283 283 283 282 283 281 283 283 283 283 283 283 283
267 268 268 270 270 270 267 267 269 269 271 273 273 273 273 275 273 274 274 272 269 271 275 276 277 278 280 282 283 283 284 284 283 283 284 285 284 287 285 285 284 285 285 285 284
281 273 271 271 273 274 276 281 272 275 277 275 273 274 275 275 274 272 268 268 270 271 273 276 279 282 284 286 286 288 288 287 286 286 286 287 287 287 288 287 288 289 289 288 287
282 282 281 277 276 276 277 278 280 279 280 279 282 278 276 277 275 275 273 272 274 276 279 283 285 286 287 288 289 289 289 289 288 289 289 289 289 290 289 290 292 291 290 289 287
284 280 289 286 280 279 281 281 278 274 276 277 279 280 281 278 276 276 276 278 281 284 283 283 283 285 287 289 291 292 292 292 291 293 292 293 292 295 294 294 294 292 291 289 288
279 283 288 288 287 284 281 279 276 278 276 276 276 277 277 276 277 278 279 280 282 283 285 286 286 287 289 293 294 293 294 293 292 293 292 293 295 296 296 295 293 292 290 291 289
274 274 277 283 286 293 289 282 279 274 273 273 273 273 274 277 278 278 278 280 282 285 286 288 288 289 293 296 297 297 295 295 295 295 293 296 298 299 296 295 293 294 294 289 288
275 276 278 281 283 291 297 286 275 271 270 271 274 276 278 279 280 281 282 285 288 289 290 292 294 294 294 295 296 296 297 298 296 296 295 299 300 298 294 295 297 294 291 290 289
274 277 275 276 278 282 283 290 285 277 275 275 276 280 282 285 286 288 289 291 292 293 293 295 295 296 296 296 298 298 299 297 295 295 295 296 301 298 297 296 293 291 289 288 286
269 276 276 273 274 278 278 283 280 277 276 275 276 282 286 286 287 289 291 294 295 294 295 297 297 297 299 300 300 300 300 299 298 298 296 294 301 298 295 291 288 288 285 284 285
278 275 275 277 274 276 280 280 274 273 273 272 279 285 285 288 291 291 294 294 293 295 296 298 298 300 301 301 300 300 299 298 297 295 297 292 301 296 292 291 290 287 288 287 287
273 273 272 273 270 275 281 284 277 277 280 283 284 283 287 288 293 294 295 295 295 296 298 299 299 299 299 297 294 296 297 296 294 292 298 294 296 294 291 288 285 284 285 282 288
270 271 272 273 269 274 282 280 278 277 283 284 286 289 289 291 294 294 295 294 293 297 299 298 300 299 300 298 298 299 299 296 295 297 290 296 291 292 285 284 279 279 279 285 287
272 270 272 269 268 269 279 285 280 278 277 281 287 290 291 293 295 294 293 294 296 297 298 298 299 298 300 297 297 297 294 297 294 291 290 293 291 285 285 286 280 275 275 279 279
267 268 263 261 274 271 274 284 279 280 281 282 284 294 294 295 295 292 292 293 295 296 297 296 296 296 298 296 295 295 298 292 292 292 292 288 286 285 283 281 280 278 278 274 267